Regional Weather Roundup
Issued by NWS

Home | Current Version | Previous Version | Graphics & Text | Print | Product List | Glossary On
Versions: 1 2 3 4 5 6 7 8 9 10 11 12 13 14 15 16 17 18 19 20 21 22 23 24 25 26 27 28 29 30 31 32 33 34 35 36 37 38 39 40 41 42 43 44 45 46 47 48 49 50
000
ASUS45 KPSR 010110
RWRAZ

ARIZONA REGIONAL HOURLY WEATHER ROUNDUP
NATIONAL WEATHER SERVICE PHOENIX AZ
600 PM MST THU JUL 31 2014

NOTE: FAIR INDICATES FEW OR NO CLOUDS BELOW 12,000 FEET WITH NO
SIGNIFICANT WEATHER AND/OR OBSTRUCTIONS TO VISIBILITY.

AZZ001>003-036-010200-
NORTHWEST ARIZONA

CITY           SKY/WX    TMP DP  RH WIND       PRES   REMARKS
BULLHEAD CITY  PTSUNNY  111  46  11 S17       29.70F HX 107
KINGMAN        PTSUNNY   98  41  14 W13       29.97F
$$

AZZ004>008-015-016-018-010200-
NORTH CENTRAL ARIZONA

CITY           SKY/WX    TMP DP  RH WIND       PRES   REMARKS
GRAND CANYON   CLOUDY    66  53  63 S9        30.28F
WILLIAMS       CLOUDY    59  54  82 SE8       30.37F
PRESCOTT       TSTM      67  58  72 E15G30    30.20R
FLAGSTAFF      CLOUDY    58  55  90 CALM      30.35F
PAYSON         PTSUNNY   73  52  46 NW16G23   30.20R THUNDER
PAGE           PTSUNNY   90  46  21 S20G25    30.02R
$$

AZZ009>014-017-010200-
NORTHEAST ARIZONA

CITY           SKY/WX    TMP DP  RH WIND       PRES   REMARKS
WINSLOW        PTSUNNY   78  49  35 W28G36    30.13F
SAINT JOHNS    PTSUNNY   75  53  46 E26G37    30.21R
WINDOW ROCK    CLOUDY    66  57  72 S3        30.27F
SHOW LOW       PTSUNNY   77  48  36 NW14G21   30.25S
$$

AZZ023-010200-
GREATER PHOENIX AREA

CITY           SKY/WX    TMP DP  RH WIND       PRES   REMARKS
PHOENIX        PTSUNNY  108  52  15 NW13      29.77F HX 105
BUCKEYE          N/A    102  57  22 S6        29.79S HX 101
GLENDALE       PTSUNNY  108  54  16 SW12G17   29.80S HX 106
LUKE AFB       NOT AVBL
DEER VALLEY    SUNNY    103  50  17 SW7       29.81F HX 100
SCOTTSDALE     SUNNY    104  52  17 S6        29.82F HX 101
MESA-GATEWAY   PTSUNNY  104  55  20 SW9       29.84F HX 103
CHANDLER       PTSUNNY  104  54  18 S10       29.80  HX 102
$$

AZZ027-028-010200-
SOUTHWEST MARICOPA COUNTY AND PINAL COUNTY

CITY           SKY/WX    TMP DP  RH WIND       PRES   REMARKS
CASA GRANDE    PTSUNNY  102  54  19 SW5       29.83F HX 100
GILA BEND      MOCLDY   106  50  15 SW5G16    29.78F HX 103
$$

AZZ503-504-507>509-010200-
SOUTHEAST ARIZONA

CITY           SKY/WX    TMP DP  RH WIND       PRES   REMARKS
TUCSON         PTSUNNY   95  53  24 W6        29.95F
DAVIS-MONTHAN  PTSUNNY   93  55  27 W3        29.94F
RYAN FIELD       N/A     95  54  24 N5        29.93F
NOGALES        PTSUNNY   90  54  29 W7        30.03F
SIERRA VISTA   PTSUNNY   88  52  29 CALM      30.11F
SAFFORD        SUNNY     96  49  20 NW15      29.94F
$$

AZZ020-021-025-026-031-010200-
SOUTHWEST ARIZONA

CITY           SKY/WX    TMP DP  RH WIND       PRES   REMARKS
YUMA           PTSUNNY  107  61  22 S14       29.74R HX 109
$$

CAZ031-033-041-043-047-048-061-010200-
SOUTHERN CALIFORNIA

CITY           SKY/WX    TMP DP  RH WIND       PRES   REMARKS
DOWNTOWN L.A.  SUNNY     79  61  53 VRB7      29.84F
L.A. AIRPORT   MOSUNNY   72  61  68 W15       29.86F
SAN DIEGO      MOSUNNY   77  65  66 NW10      29.88S
BURBANK        SUNNY     87  58  37 S9        29.84F
ONTARIO        MOSUNNY   94  60  32 SW17      29.84S
RIVERSIDE      SUNNY     93  58  30 W12       29.83F
PALM SPRINGS   PTSUNNY  108  55  17 SE7       29.74F HX 107
EL CENTRO NAS  PTSUNNY  106  64  25 E13       29.69S HX 109
IMPERIAL       PTSUNNY  106  64  25 SE14      29.69F HX 109
BLYTHE           N/A    N/A N/A N/A MISG      29.71F
NEEDLES        PTSUNNY  112  43  10 SW14      29.72F HX 106
$$

NVZ020-UTZ003-010200-
SOUTHERN NEVADA-UTAH

CITY           SKY/WX    TMP DP  RH WIND       PRES   REMARKS
LAS VEGAS      PTSUNNY  106  38   9 W16       29.79F HX 100
SALT LAKE CITY PTSUNNY   83  50  31 W12       30.10S
$$

NMZ009-TXZ055-010200-
NEW MEXICO-WEST TEXAS

CITY           SKY/WX    TMP DP  RH WIND       PRES   REMARKS
ALBUQUERQUE    TSTM      74  51  44 NW16G26   30.21R
EL PASO        PTSUNNY   86  60  41 E10       30.05R
$$


........................KEY........................
SKY/WX - SKY CONDITION/WEATHER
TMP    - TEMPERATURE IN FAHRENHEIT
DP     - DEW POINT IN FAHRENHEIT
RH     - RELATIVE HUMIDITY IN PERCENT
WIND   - DIRECTION AND SPEED IN MILES PER HOUR (MPH)
VRB    - VARIABLE WIND DIRECTION
PRES   - MEAN SEA LEVEL PRESSURE IN INCHES OF MERCURY
         F - FALLING PRESSURE   R - RISING PRESSURE
         S - STEADY PRESSURE
VSB    - VISIBILITY IN MILES
HX     - HEAT INDEX IN FAHRENHEIT
WCI    - WIND CHILL INDEX IN FAHRENHEIT
TC     - TEMPERATURE IN CELSIUS WHICH IS ALSO KNOWN AS
         TEMPERATURE IN CENTIGRADE
AFB    - AIR FORCE BASE
         LUKE AFB IS LUKE AIR FORCE BASE
         DAVIS-MONTHAN IS DAVIS-MONTHAN AIR FORCE BASE
NAS    - NAVAL AIR STATION
         EL CENTRO NAS IS EL CENTRO NAVAL AIR STATION
N/A    - NOT AVAILABLE


USA.gov is the U.S. government's official web portal to all federal, state and local government web resources and services.